User: anonymous   Login
Location: Newark
(45.4422°N, 16.2769°E)
Time: 15:14:13
(UTC+00:00)
Language:

Transit 2A Rocket - Orbit

View from above orbital plane
View from above orbital plane
View from above satellite
View from above satellite

Ground track
Ground track

The orbit data is extracted from the following two-line orbital elements,

1    47U 60007C   19342.65948949 -.00000034 +00000-0 +17317-4 0  9998
2    47 066.6662 307.8277 0220327 083.3837 279.2292 14.42061912107020
Epoch (UTC): 08 December 2019 15:49:39
Eccentricity: 0.0220327
inclination: 66.6662°
perigee height: 594 km
apogee height: 909 km
right ascension of ascending node: 307.8277°
argument of perigee: 83.3837°
revolutions per day: 14.42061912
mean anomaly at epoch: 279.2292°
orbit number at epoch: 10702

The dashed part of the orbit path shows where the satellite is in the earth's shadow,  

DLR